Flag for Puerto Rico Weather past 2 weeks in Caguas, Puerto Rico

Now
85 °F

Scattered clouds.


Feels Like: 98 °F
Forecast: 77 / 85 °F
Wind: 13 mph from East

Location: Luis Munoz Marin

Current Time: Aug 28, 2014 at 9:33:17 AM

Latest Report: Aug 28, 2014 at 8:56 AM


Visibility: 10 mi

Pressure: 29.99 "Hg

Humidity: 83%

Dew point: 79 °F

Location of CaguasLocation

Historic Weather in Caguas — Graph

°F

Caguas temperature yesterday

Maximum temperature yesterday: 89 °F (at 12:56 PM)
Minimum temperature yesterday: 81 °F (at 3:56 AM)
Average temperature yesterday: 85 °F

Past Weeks' High & Low Weather Summary

 TemperatureHumidityPressure
High93 °F (Aug 26, 12:56 PM)100% (Aug 16, 10:56 AM)30.09 "Hg (Aug 16, 10:56 AM)
Low76 °F (Aug 24, 5:56 AM)45% (Aug 26, 4:56 PM)29.83 "Hg (Aug 22, 5:56 PM)
Average83 °F81%29.97 "Hg
* Reported Aug 13 7:56 AM — Aug 28 7:56 AM, Caguas, Weather by CustomWeather, © 2014

Note: Actual official high and low records may vary slightly from our data, if they occured in-between our weather recording intervals... More about our weather records

Advertising

Caguas weather history for previous 24 hours

 ConditionsComfort  
Time TempWeatherWind HumidityBarometerVisibility
7:56 AM
Aug 28
84 °FScattered clouds.15 mph85%29.99 "Hg10 mi
6:56 AM83 °FPartly cloudy.12 mph82%29.97 "Hg10 mi
5:56 AM83 °FPartly cloudy.12 mph82%29.96 "Hg10 mi
4:56 AM83 °FPassing clouds.18 mph82%29.96 "Hg10 mi
3:56 AM83 °FPassing clouds.16 mph85%29.95 "Hg10 mi
2:56 AM83 °FPassing clouds.14 mph82%29.96 "Hg10 mi
1:56 AM83 °FPassing clouds.13 mph82%29.97 "Hg10 mi
12:56 AM83 °FPassing clouds.14 mph82%30.00 "Hg10 mi
11:56 PM
Aug 27
83 °FPassing clouds.12 mph82%30.03 "Hg10 mi
10:56 PM82 °FPassing clouds.12 mph88%30.04 "Hg9 mi
9:56 PM83 °FPassing clouds.14 mph82%30.04 "Hg9 mi
8:56 PM84 °FPassing clouds.14 mph80%30.02 "Hg9 mi
7:56 PM84 °FPassing clouds.13 mph80%30.01 "Hg8 mi
6:56 PM84 °FScattered clouds.13 mph80%29.99 "Hg7 mi
5:56 PM85 °FScattered clouds.20 mph80%29.98 "Hg7 mi
4:56 PM86 °FScattered clouds.16 mph77%29.98 "Hg6 mi
3:56 PM88 °FScattered clouds.20 mph70%29.98 "Hg6 mi
2:56 PM88 °FScattered clouds.24 mph70%29.98 "Hg9 mi
1:56 PM88 °FScattered clouds.21 mph73%30.00 "Hg9 mi
12:56 PM89 °FBroken clouds.21 mph68%30.02 "Hg9 mi
11:56 AM87 °FScattered clouds.17 mph77%30.03 "Hg9 mi
10:56 AM87 °FScattered clouds.18 mph72%30.04 "Hg9 mi
9:56 AM88 °FScattered clouds.17 mph67%30.04 "Hg9 mi
Weather by CustomWeather, © 2014

See weather overviewHow to use our weather pages